This is the latest recevied weather packets stored in our database for station/object KC9MWQ-13. If no packets are shown the sender has not sent any weather packets the latest 10 day(s).
| Time | Temp. | Humidity | Pressure | Rain* | Wind** | Luminosity | Snow |
|---|---|---|---|---|---|---|---|
| 1778022386 | 8.33° C | 99% | 1009.8 hPa | 0 mm | - | 20 W/m² | - |
| 1778022081 | 8.33° C | 99% | 1010 hPa | 0 mm | - | 15 W/m² | - |
| 1778021778 | 8.33° C | 99% | 1010 hPa | 0 mm | - | 19 W/m² | - |
| 1778021474 | 8.33° C | 99% | 1009.9 hPa | 1.78 mm | - | 32 W/m² | - |
| 1778021171 | 8.33° C | 99% | 1009.8 hPa | 1.78 mm | - | 36 W/m² | - |
| 1778020869 | 7.78° C | 99% | 1010 hPa | 0 mm | - | 22 W/m² | - |
| 1778020566 | 7.78° C | 99% | 1010.1 hPa | 0 mm | - | 27 W/m² | - |
| 1778020262 | 8.33° C | 99% | 1009.9 hPa | 0 mm | - | 31 W/m² | - |
| 1778019958 | 8.33° C | 99% | 1009.8 hPa | 1.27 mm | - | 44 W/m² | - |
| 1778019654 | 7.78° C | 99% | 1009.7 hPa | 3.05 mm | - | 62 W/m² | - |
| 1778019352 | 8.33° C | 99% | 1009.8 hPa | 3.56 mm | - | 44 W/m² | - |
| 1778019048 | 8.33° C | 99% | 1009.6 hPa | 3.05 mm | - | 56 W/m² | - |
| 1778018745 | 8.33° C | 99% | 1010 hPa | 1.27 mm | - | 50 W/m² | - |
| 1778018443 | 8.33° C | 99% | 1010.1 hPa | 1.78 mm | - | 31 W/m² | - |
| 1778018141 | 8.33° C | 99% | 1009.9 hPa | 1.78 mm | - | 38 W/m² | - |
| 1778017838 | 8.33° C | 99% | 1010.3 hPa | 1.78 mm | - | 35 W/m² | - |
| 1778017536 | 8.33° C | 99% | 1010.1 hPa | 1.27 mm | - | 75 W/m² | - |
| 1778017233 | 8.33° C | 99% | 1009.9 hPa | 1.27 mm | - | 53 W/m² | - |
| 1778016931 | 8.33° C | 99% | 1010.1 hPa | 0 mm | - | 47 W/m² | - |
| 1778016627 | 8.33° C | 99% | 1009.9 hPa | 0 mm | - | 42 W/m² | - |
| 1778016323 | 8.33° C | 99% | 1009.9 hPa | 0 mm | - | 54 W/m² | - |
| 1778016021 | 8.33° C | 99% | 1010.1 hPa | 1.78 mm | - | 47 W/m² | - |
| 1778015718 | 8.33° C | 99% | 1010 hPa | 1.78 mm | - | 47 W/m² | - |
| 1778015414 | 8.33° C | 99% | 1010 hPa | 1.27 mm | - | 49 W/m² | - |
| 1778015111 | 8.33° C | 99% | 1009.9 hPa | 1.27 mm | - | 62 W/m² | - |
* Rain latest hour (hover to see other rain measurements)
** Current wind speed in m/s (hover to see current wind gust speed)